Home   Weather   Bautzen   Past weeks

Flag for Germany Past Weather in Bautzen, Saxony, Germany — Yesterday and Last 2 Weeks

Now
21 °F

Passing clouds.


Feels Like: 15 °F
Forecast: 4 / 22 °F
Wind: 5 mph from East

Location: Dresden-Klotzsche

Current Time: Jan 18, 2017 at 5:27:50 pm

Latest Report: Jan 18, 2017 at 4:50 pm


Visibility: 4 mi

Pressure: 30.69 "Hg

Humidity: 93%

Dew Point: 19 °F

Location of BautzenLocation

Past Weather in Bautzen — Graph

°F

Bautzen Temperature Yesterday

Maximum temperature yesterday: 27 °F (at 1:50 pm)
Minimum temperature yesterday: 25 °F (at 12:20 am)
Average temperature yesterday: 25 °F

High & Low Weather Summary for the Past Weeks

 TemperatureHumidityPressure
High41 °F (Jan 13, 6:20 am)100% (Jan 3, 10:20 pm)30.72 "Hg (Jan 3, 10:20 pm)
Low10 °F (Jan 6, 4:50 am)57% (Jan 13, 7:20 am)29.12 "Hg (Jan 13, 5:50 am)
Average27 °F89%30.06 "Hg
* Reported Jan 3 4:20 pm — Jan 18 4:20 pm, Bautzen, Weather by CustomWeather, © 2017

Note: Actual official high and low records may vary slightly from our data, if they occured in-between our weather recording intervals... More about our weather records

Advertising

Bautzen Weather History for the Previous 24 Hours

Scroll right to see more
 ConditionsComfort  
Time TempWeatherWind HumidityBarometerVisibility
4:20 pm
Wed, Jan 18
21 °FPartly sunny.5 mph93%30.69 "Hg4 mi
3:50 pm23 °FPartly sunny.5 mph86%30.69 "Hg4 mi
3:20 pm23 °FPartly sunny.5 mph86%30.69 "Hg4 mi
2:50 pm23 °FPartly sunny.3 mph86%30.69 "Hg4 mi
2:20 pm23 °FPartly sunny.2 mph86%30.69 "Hg4 mi
1:50 pm23 °FPartly sunny.3 mph86%30.69 "Hg4 mi
1:20 pm23 °FPartly sunny.5 mph86%30.69 "Hg4 mi
12:50 pm21 °FPartly sunny.6 mph93%30.69 "Hg4 mi
12:20 pm23 °FPartly sunny.5 mph86%30.69 "Hg5 mi
11:50 am23 °FPartly sunny.5 mph86%30.72 "Hg5 mi
11:20 am23 °FPartly sunny.2 mph86%30.72 "Hg5 mi
10:50 am23 °FPartly sunny.3 mph93%30.72 "Hg5 mi
10:20 am23 °FPartly sunny.3 mph86%30.72 "Hg4 mi
9:50 am21 °FPartly sunny.2 mph93%30.69 "Hg4 mi
9:20 am21 °FPartly sunny.1 mph93%30.69 "Hg4 mi
8:50 am21 °FPartly sunny.2 mph93%30.69 "Hg4 mi
8:20 am21 °FLow clouds.3 mph93%30.69 "Hg4 mi
7:50 am21 °FLow clouds.2 mph93%30.69 "Hg4 mi
7:20 am21 °FLow clouds.3 mph93%30.69 "Hg5 mi
6:50 am21 °FLow clouds.5 mph93%30.69 "Hg5 mi
6:20 am21 °FLow clouds.6 mph100%30.66 "HgN/A
5:50 am21 °FLow clouds.3 mph100%30.66 "HgN/A
5:20 am23 °FLow clouds.3 mph93%30.66 "HgN/A
4:50 am23 °FLow clouds.3 mph93%30.66 "HgN/A
4:20 am23 °FLow clouds.3 mph93%30.66 "HgN/A
3:50 am23 °FLow clouds.3 mph93%30.66 "HgN/A
3:20 am23 °FLow clouds.3 mph93%30.66 "HgN/A
2:50 am23 °FLow clouds.3 mph100%30.66 "HgN/A
2:20 am23 °FLow clouds.2 mph100%30.66 "HgN/A
1:50 am23 °FPassing clouds.5 mph100%30.66 "HgN/A
1:20 am23 °FPassing clouds.3 mph93%30.66 "HgN/A
12:50 am25 °FLow clouds.1 mph93%30.66 "HgN/A
12:20 am25 °FLow clouds.3 mph93%30.66 "HgN/A
11:50 pm
Tue, Jan 17
25 °FLow clouds.5 mph93%30.66 "HgN/A
11:20 pm25 °FLow clouds.3 mph93%30.66 "HgN/A
10:50 pm25 °FLow clouds.5 mph93%30.66 "HgN/A
10:20 pm25 °FLow clouds.5 mph93%30.66 "HgN/A
9:50 pm25 °FLow clouds.6 mph100%30.63 "HgN/A
9:20 pm25 °FLow clouds.3 mph100%30.63 "HgN/A
8:50 pm25 °FLow clouds.3 mph100%30.63 "Hg5 mi
8:20 pm25 °FIce fog.3 mph100%30.63 "Hg2 mi
7:50 pm25 °FIce fog.3 mph100%30.63 "Hg2 mi
7:20 pm25 °FIce fog.5 mph100%30.63 "Hg2 mi
6:50 pm25 °FIce fog.5 mph100%30.63 "Hg3 mi
6:20 pm25 °FMostly cloudy.3 mph93%30.60 "Hg6 mi
5:50 pm25 °FPassing clouds.3 mph93%30.60 "Hg4 mi
5:20 pm25 °FPartly cloudy.3 mph93%30.60 "Hg4 mi
Weather by CustomWeather, © 2017

See weather overviewHow to use our weather pages